GFSGL_sfc_rhum_132.txt.gz
RH
91 94 95 95 95 96 96 95 95 96 95 95 93 93 94 94 94 96 95 94 95 95 95 97 98 97 98 98 98 97 96 96 86 75 70 79 87 84 76 77 77 78 76
92 95 96 96 96 90 90 93 94 96 94 95 94 94 93 93 94 95 95 94 94 97 97 98 97 94 91 95 97 95 96 95 95 91 81 85 89 86 83 87 80 72 75
91 94 96 96 96 94 95 95 94 95 94 93 93 94 93 93 94 94 94 92 95 91 92 92 88 86 92 96 97 98 96 96 96 90 80 92 82 89 94 88 87 87 78
91 94 95 95 95 92 94 94 94 94 94 93 92 92 93 92 93 93 93 93 94 91 90 89 88 89 86 85 87 93 95 97 97 94 88 85 95 94 90 87 89 89 86
93 94 94 94 94 94 92 92 91 93 91 90 89 91 90 91 87 92 93 92 93 91 88 83 84 79 82 87 88 92 95 96 97 94 86 93 95 98 94 88 90 86 93
93 90 91 93 90 91 90 90 91 90 90 88 90 92 92 79 84 93 93 94 89 90 88 88 86 88 89 90 92 87 93 95 93 92 88 85 91 96 94 94 94 94 90
91 87 85 85 88 90 90 93 93 91 87 90 94 95 94 91 90 95 95 94 94 92 90 88 89 72 89 88 91 96 98 98 94 94 93 90 92 94 95 98 97 96 94
87 84 83 88 89 90 93 95 94 91 90 97 97 96 96 94 95 98 97 96 96 94 92 91 91 87 90 90 91 91 91 95 98 97 94 90 91 91 95 94 94 94 93
85 86 87 90 94 94 96 96 95 94 93 97 96 96 98 97 100 100 99 98 97 97 94 93 90 92 94 95 92 95 94 95 98 99 98 98 100 100 99 99 98 97 96
85 87 91 93 95 96 97 98 97 95 93 96 97 98 99 98 100 100 100 99 99 99 98 97 97 94 100 99 93 94 98 90 92 92 98 99 100 99 100 97 96 97 94
90 91 91 93 96 97 96 96 96 97 94 95 95 94 96 99 98 100 100 99 99 99 99 99 99 100 100 100 99 96 94 93 95 94 94 95 96 97 98 99 97 97 96
93 92 91 92 95 94 94 96 96 98 93 94 95 93 95 96 99 100 100 100 100 99 99 99 99 100 100 100 100 100 100 100 97 99 98 98 98 98 96 99 98 98 96
93 90 86 85 87 93 94 95 96 96 98 97 97 97 98 97 98 98 100 100 100 100 100 100 100 100 100 100 100 100 100 99 99 99 99 100 99 99 99 99 99 98 98
91 89 92 88 86 92 82 83 94 92 96 97 98 98 96 97 99 99 99 99 100 100 100 100 100 100 100 100 100 100 99 100 100 99 99 100 100 99 100 100 100 100 99
88 92 88 78 88 92 95 91 87 92 96 90 91 89 98 97 99 100 100 99 100 100 99 98 98 98 97 98 97 98 99 99 99 99 99 99 100 99 100 100 100 100 100
84 82 73 74 69 82 96 92 99 100 99 100 100 97 89 100 100 100 100 100 100 100 87 91 96 96 98 98 99 100 99 98 99 99 99 99 99 99 99 98 99 99 99
87 82 74 71 71 69 80 90 82 89 99 100 100 100 100 100 100 100 100 100 100 89 85 89 90 90 93 94 99 98 99 99 98 99 99 98 97 98 96 96 95 88 85
82 85 77 73 68 65 66 68 66 78 78 78 90 98 100 100 96 99 99 83 79 81 78 80 80 82 84 81 80 86 85 86 86 85 82 81 82 82 84 82 81 82 82
77 74 70 70 67 68 68 72 66 77 80 81 78 83 92 94 93 91 93 88 88 90 88 84 82 80 81 82 82 83 87 90 89 86 85 84 80 79 83 82 80 91 88
74 80 76 67 65 64 68 71 76 83 81 77 77 77 75 73 76 77 80 81 82 82 87 90 92 89 86 86 85 84 82 84 85 84 85 88 83 81 78 77 77 75 78
64 65 72 61 65 69 73 77 77 73 76 76 80 82 97 73 75 76 77 80 80 79 77 79 81 84 85 92 83 79 75 72 78 83 85 86 85 84 83 81 80 76 73
61 58 60 62 68 72 76 75 75 74 73 73 75 76 90 72 72 73 74 75 75 76 74 74 71 70 78 75 76 80 72 68 74 72 73 76 78 71 75 80 82 80 78
52 50 51 53 55 64 63 68 72 74 76 78 76 75 73 73 69 68 64 64 71 72 72 72 70 67 68 68 69 69 64 74 75 76 74 66 66 64 68 83 83 74 80
48 46 44 45 47 48 51 51 49 59 55 60 66 73 76 75 74 75 73 71 69 67 69 70 69 65 67 66 66 64 67 80 75 77 83 84 82 80 77 73 72 72 75
46 46 47 52 50 53 53 55 56 53 53 54 53 56 55 57 58 57 61 67 69 67 66 67 73 72 71 74 74 73 95 98 83 96 75 76 73 71 62 58 64 67 66
49 53 54 54 54 56 56 58 58 58 57 58 58 60 60 59 60 60 60 59 59 56 56 54 57 72 72 70 76 92 98 98 82 98 81 72 75 71 73 71 67 60 61

GFSGL_sfc_rhum_135.txt.gz
RH
62 67 73 72 70 72 73 72 73 75 77 78 77 77 76 75 78 83 86 85 89 91 90 91 91 90 90 94 87 70 66 80 93 62 51 54 70 74 66 55 57 59 51
62 70 73 73 71 71 73 72 72 76 76 76 77 79 78 77 78 84 83 82 86 90 90 93 92 91 92 94 96 92 80 71 68 83 66 56 70 70 69 69 60 50 51
64 66 70 71 75 79 78 77 75 74 73 71 75 78 78 79 81 81 83 84 84 80 83 89 89 91 91 84 81 79 72 72 69 69 63 56 56 58 65 72 71 70 57
61 65 68 66 72 71 74 75 75 75 76 73 73 77 81 81 81 81 80 83 84 80 78 79 80 82 86 84 77 79 81 73 83 93 80 62 60 64 64 59 60 61 57
66 69 66 64 64 67 69 70 71 75 72 70 72 75 76 77 78 82 80 79 87 83 78 73 76 76 82 78 64 71 81 85 95 97 96 82 67 71 71 56 61 53 60
69 67 63 66 69 72 72 74 76 73 70 71 74 80 86 79 84 90 88 84 87 84 88 80 72 84 84 90 88 83 75 87 90 95 95 91 80 76 65 61 61 62 61
72 66 63 68 73 76 76 78 78 76 74 76 83 89 93 92 94 94 91 88 94 91 86 84 76 62 82 73 87 87 86 87 87 86 88 87 84 82 77 90 79 72 66
65 63 64 71 74 77 81 80 81 76 74 87 93 90 95 96 96 95 93 86 88 91 81 74 77 82 78 80 76 76 73 73 86 93 91 91 84 87 87 86 85 85 72
62 66 69 72 77 80 80 82 81 80 76 89 94 88 95 97 100 100 99 97 97 95 92 88 81 84 88 92 81 80 78 72 78 95 94 93 98 99 98 97 97 92 68
65 68 73 76 78 78 85 89 83 79 75 91 95 90 90 96 99 99 100 99 98 98 97 96 96 88 98 99 91 77 80 73 78 94 89 98 97 91 100 93 94 88 59
68 71 72 72 78 80 95 83 81 79 81 88 93 95 91 92 96 98 100 99 98 99 99 98 97 99 100 100 99 80 77 80 94 96 95 91 68 77 90 97 93 87 68
70 73 70 69 69 82 95 79 79 82 81 88 95 96 93 89 96 98 98 100 100 99 99 98 99 100 100 100 100 99 100 96 95 93 86 66 68 71 64 76 93 87 83
74 74 72 71 72 76 89 85 67 73 73 77 97 97 96 94 96 97 97 99 100 100 100 100 100 100 100 100 100 100 100 99 99 99 98 98 96 78 83 87 88 92 90
76 72 72 71 70 66 93 92 65 58 59 78 92 97 93 95 98 99 99 99 100 100 100 100 100 100 100 99 96 96 97 99 99 99 99 99 98 99 99 99 99 99 99
68 66 62 46 54 60 78 90 63 68 75 78 92 77 94 99 99 100 100 100 100 100 98 98 96 87 88 96 97 96 97 97 99 99 99 99 99 99 99 100 99 99 99
62 50 48 49 44 45 62 56 97 96 100 100 100 96 82 99 100 100 100 100 100 99 82 71 64 69 75 85 94 96 97 97 98 98 99 99 99 99 99 100 99 99 100
66 61 51 56 45 49 50 48 49 76 99 100 100 100 100 100 99 97 99 93 88 70 54 57 59 65 66 68 75 92 97 100 99 99 98 98 98 98 98 99 99 99 98
64 79 53 47 45 46 49 47 44 55 56 63 79 88 91 92 93 94 95 82 66 66 59 59 60 60 58 61 63 69 71 75 86 89 71 68 65 66 70 72 74 78 84
51 46 44 44 46 67 72 50 50 57 60 58 59 66 70 85 87 87 84 71 75 76 68 69 65 63 62 61 64 69 71 67 72 71 72 69 68 67 69 66 67 88 79
56 74 65 48 48 46 53 54 56 59 61 64 63 58 50 56 54 54 61 66 65 62 56 59 74 76 68 71 70 64 62 67 65 62 66 67 66 66 62 66 57 59 66
42 44 66 40 60 50 58 62 60 53 54 54 58 66 98 50 50 50 50 51 52 51 58 53 48 54 59 61 61 58 56 54 54 54 53 56 60 61 65 62 60 62 61
42 38 40 43 49 54 56 56 58 54 52 50 50 52 72 42 41 41 41 42 44 46 46 52 51 51 52 53 57 66 63 60 61 55 65 60 49 52 52 60 55 64 73
58 46 45 47 50 63 53 52 57 55 55 55 52 49 46 46 45 45 43 42 44 44 45 48 48 47 51 50 51 54 49 59 61 58 61 56 50 59 62 55 53 51 54
44 41 41 44 47 44 43 40 40 52 46 44 41 40 40 39 38 42 42 44 45 44 44 45 49 51 53 50 49 46 49 55 50 47 55 52 49 52 46 45 43 53 47
35 36 36 35 35 36 35 35 36 34 35 36 35 36 36 38 40 39 41 43 41 40 41 40 40 46 52 60 60 57 87 98 71 85 49 53 54 56 48 46 46 45 44
31 34 34 37 36 36 36 37 38 38 38 39 39 40 40 40 39 40 42 42 41 39 41 38 40 44 45 44 66 92 98 98 75 99 57 48 49 47 45 51 49 46 46

GFSGL_sfc_rhum_141.txt.gz
RH
48 47 49 51 51 54 54 53 55 59 63 65 64 64 65 64 66 71 73 71 71 71 70 71 75 78 75 68 65 68 74 91 97 97 58 52 69 66 48 50 48 52 46
48 51 53 55 56 56 57 56 57 61 61 62 65 68 68 67 71 72 70 68 71 73 71 74 72 63 77 80 73 81 75 73 92 94 95 70 84 67 64 63 50 39 44
49 48 53 57 60 62 60 59 59 62 61 61 68 69 70 68 67 68 70 69 70 71 73 74 71 72 77 69 75 81 83 81 94 94 88 94 96 80 75 87 76 69 54
46 48 53 54 54 51 53 56 59 61 62 65 68 71 66 62 62 64 63 68 73 77 82 78 74 73 76 78 78 82 85 89 92 95 89 93 92 71 90 96 90 88 80
48 49 51 52 49 48 51 56 56 64 58 62 62 61 59 54 48 63 66 73 83 88 87 80 76 75 73 76 75 79 89 91 90 90 86 77 64 55 64 58 63 89 93
48 47 48 52 50 52 53 57 61 59 62 63 62 63 56 44 66 75 83 87 90 92 95 89 86 81 75 82 83 84 85 90 90 86 65 75 73 58 50 51 50 64 82
52 49 50 50 51 54 56 60 62 66 64 66 62 59 60 62 72 81 86 91 90 88 91 93 86 70 76 73 84 88 92 97 94 84 82 73 70 67 68 74 75 85 86
51 50 49 48 49 58 64 64 67 65 68 65 65 63 63 62 81 86 91 92 90 87 87 87 90 83 84 81 80 79 74 76 78 70 75 74 73 75 74 70 78 83 87
48 50 47 46 56 60 63 67 68 66 76 67 60 66 72 76 86 93 93 92 96 94 90 88 84 83 84 95 82 85 82 73 75 86 83 83 85 82 80 83 85 86 88
48 47 46 51 60 60 64 68 70 68 68 50 61 64 80 79 84 93 96 99 98 98 98 94 90 87 95 100 86 88 91 73 75 71 73 82 87 76 93 79 73 98 96
48 48 49 54 60 62 64 67 68 72 68 67 60 65 70 82 87 92 95 98 99 99 98 98 96 100 100 99 100 90 91 87 86 79 84 76 83 76 62 72 75 80 98
51 50 52 53 51 47 62 68 68 75 74 73 64 56 50 80 92 92 97 97 97 98 98 99 99 100 100 100 100 100 100 98 87 92 95 94 91 89 88 84 82 89 75
57 57 58 55 53 56 62 66 53 71 67 46 39 48 48 86 94 96 96 97 96 98 99 99 99 100 100 100 100 100 100 99 98 98 96 94 94 93 87 85 93 86 88
62 61 60 58 60 56 42 34 40 38 43 42 48 56 53 84 93 97 99 98 97 97 97 98 97 97 98 97 95 96 98 98 98 99 99 97 94 97 98 99 99 98 97
58 54 52 40 42 44 47 35 33 66 59 52 61 59 70 72 91 98 99 96 98 99 100 99 96 98 98 98 97 97 98 97 97 98 98 98 99 98 98 98 98 98 98
79 42 38 31 27 29 29 65 96 89 100 100 100 84 67 82 94 89 90 92 87 92 92 91 90 63 59 56 62 73 76 93 97 97 98 98 98 98 99 98 98 98 98
76 52 40 36 28 51 31 42 92 88 99 100 92 97 93 94 86 85 82 86 74 68 90 95 78 87 77 62 56 65 57 64 84 97 97 96 97 98 99 97 96 95 97
74 72 40 33 25 40 32 34 36 95 53 55 78 80 78 85 78 77 78 62 53 55 54 65 66 76 78 81 83 73 64 72 74 73 81 87 88 93 95 97 98 98 98
62 37 44 38 34 46 29 31 53 38 43 48 53 79 67 74 75 69 66 52 50 49 49 55 58 57 56 59 59 59 60 51 53 53 58 65 80 89 84 70 68 79 82
43 56 56 34 62 29 48 41 72 38 50 42 40 39 35 37 36 36 43 50 48 46 46 47 51 56 63 65 58 54 52 52 52 48 50 52 54 54 59 69 80 87 87
36 79 74 27 44 35 42 57 42 58 42 43 43 42 74 40 31 32 33 36 40 43 45 48 39 44 51 52 50 42 42 42 42 44 44 45 46 47 47 54 48 50 54
63 72 94 93 75 91 64 50 63 46 37 52 47 40 58 26 26 27 30 32 35 37 38 48 43 41 39 42 47 45 46 46 45 43 42 37 36 36 38 39 45 42 40
57 55 65 78 60 64 48 43 50 52 51 35 28 24 23 25 25 29 28 29 32 32 32 33 35 36 41 41 45 51 47 51 47 44 46 41 38 38 38 37 34 34 39
89 87 84 90 94 84 56 34 31 40 28 25 22 23 24 25 25 29 28 30 30 29 30 29 32 33 39 45 49 47 54 65 52 48 50 44 40 40 39 36 33 37 36
88 88 85 86 70 36 29 28 26 22 21 22 21 23 23 25 26 27 29 31 29 28 29 28 31 34 50 53 53 54 84 95 70 88 47 44 41 44 36 35 38 37 36
52 59 49 34 30 28 28 25 24 25 24 23 23 24 25 26 26 29 30 31 28 26 28 27 30 34 36 47 56 85 92 94 76 93 67 43 40 38 38 42 41 38 37

GFSGL_sfc_rhum_147.txt.gz
RH
89 88 86 82 77 77 81 80 83 86 87 88 88 89 90 89 87 91 92 90 92 87 82 79 77 73 71 69 67 68 90 95 98 77 90 89 90 88 82 87 86 92 96
86 84 80 76 74 78 80 82 81 79 80 84 86 91 88 88 89 90 90 87 87 78 71 70 71 65 66 65 65 68 72 76 94 93 88 95 90 84 82 89 90 87 97
76 77 79 80 82 83 82 81 80 81 82 85 88 88 87 88 90 88 89 83 84 75 70 68 70 71 74 71 68 67 69 80 89 92 88 88 83 86 88 94 94 93 95
79 78 82 82 84 79 76 77 81 87 89 87 85 89 87 87 85 86 81 80 71 69 73 74 73 72 71 70 77 79 88 95 95 95 93 93 90 87 95 96 97 98 97
86 86 82 80 77 72 72 72 75 85 85 86 86 84 86 81 66 88 78 72 76 78 76 73 73 78 82 84 88 82 94 96 98 97 96 96 96 96 94 97 98 98 97
86 89 84 77 73 68 69 72 81 84 86 85 88 89 86 75 83 86 81 80 81 80 82 77 81 86 87 90 89 89 87 95 96 98 95 95 92 95 95 98 99 100 100
87 82 82 76 70 72 69 76 85 88 86 86 89 90 90 88 86 87 83 86 84 82 80 88 88 82 89 87 89 90 90 90 91 93 95 94 92 90 94 96 93 98 97
76 74 78 73 70 73 73 84 87 89 88 90 92 91 88 90 87 87 86 88 85 83 82 86 87 94 95 95 95 95 94 88 87 87 93 90 94 93 96 92 96 94 96
70 77 75 72 75 71 81 88 88 89 92 93 92 89 87 86 88 90 94 95 89 87 77 90 96 98 97 97 98 98 97 96 93 91 87 84 89 93 98 97 98 98 97
79 79 76 75 70 76 83 86 89 92 93 93 87 90 81 84 89 88 94 97 93 94 85 94 92 97 98 99 98 99 98 97 97 98 95 92 92 98 100 88 97 97 98
86 79 78 77 74 80 87 86 89 93 93 92 90 90 81 88 91 91 90 96 98 99 97 97 97 96 98 100 100 99 100 99 98 98 98 98 97 99 99 98 97 93 98
86 79 78 78 76 76 87 87 92 93 93 92 92 85 90 89 88 93 90 91 93 98 99 98 97 99 100 98 98 99 100 99 98 99 99 99 99 99 99 98 96 97 98
85 80 81 85 81 78 82 83 94 92 94 93 88 91 94 92 95 87 88 89 91 96 98 97 98 98 97 93 91 94 94 98 99 99 99 99 99 99 98 98 97 95 95
96 94 91 90 91 89 89 92 95 95 91 82 87 95 96 96 90 75 90 86 91 94 93 96 95 98 98 96 79 79 93 96 97 98 99 99 97 98 99 98 99 98 96
98 95 93 94 89 88 72 97 94 91 76 83 93 94 88 79 77 88 92 81 89 95 94 92 94 94 94 96 97 97 93 88 91 94 92 90 94 93 97 96 94 94 96
96 97 97 95 80 92 97 97 98 96 93 95 99 79 86 83 82 80 80 80 81 85 83 89 91 87 79 89 90 91 95 94 98 95 96 97 96 96 95 95 95 96 95
96 94 92 90 94 95 94 83 93 95 100 99 96 99 99 85 82 75 73 76 76 64 56 80 68 64 68 75 88 86 87 94 87 91 91 94 98 99 97 97 98 97 96
95 92 94 90 96 95 84 96 92 94 89 78 90 89 90 88 78 80 70 65 59 61 64 63 62 63 62 64 62 62 59 57 59 67 68 63 78 90 89 93 97 98 98
97 95 95 95 93 93 94 89 95 93 95 96 95 87 88 87 81 79 83 71 70 68 69 68 77 67 66 65 64 66 64 63 61 61 61 63 76 82 89 88 74 78 94
97 94 96 98 98 97 97 97 97 97 96 96 91 69 80 83 76 73 70 66 69 73 72 69 66 72 71 69 66 66 68 66 62 65 67 62 64 62 65 68 69 81 84
98 97 95 95 96 99 97 97 97 97 91 69 58 57 68 59 59 60 62 66 66 68 73 70 68 70 70 67 69 67 68 70 66 65 69 65 63 62 64 64 67 69 70
98 98 96 87 85 97 99 98 95 95 93 76 62 57 63 55 58 60 58 60 64 67 72 72 71 70 68 69 73 69 69 72 77 73 74 73 67 64 62 62 64 62 65
95 84 92 95 94 94 90 95 95 90 84 69 58 54 55 57 58 59 56 56 64 66 70 72 71 68 69 70 73 78 77 81 84 77 79 80 75 71 70 70 66 65 66
83 82 86 88 82 88 91 92 80 75 55 49 51 51 55 58 58 56 56 61 59 64 70 72 69 68 69 72 78 79 84 88 86 84 84 81 80 78 72 69 66 65 64
91 94 90 94 94 86 74 73 67 43 40 45 48 51 56 55 57 55 56 57 56 59 59 72 67 68 70 72 76 80 88 92 87 88 86 82 79 73 64 68 65 66 62
82 79 75 76 70 67 62 50 46 43 48 50 53 54 50 54 56 58 57 53 54 56 56 58 64 66 67 72 80 86 90 91 88 90 90 83 76 78 72 70 66 65 64